Retour au catalogue

STARLINK-30157

ActifCommunicationsVLEO
NORAD 57512·PAYLOAD·🇺🇸 United States

Lancé Aug 7, 2023 depuis Cape Canaveral Space Force Station

Loading…

Prochains Passages (prochaines 24 heures)

TLE

FraisSource: CelesTrak SupGP

Époque: Sep 15, 2026, 02:27 UTC

1 57512C 23113T   26258.10256944 -.00031280  00000+0 -11334-2 0  2581
2 57512  43.0026   0.5725 0001774 264.3297 127.8762 15.27581315    10

Suivez STARLINK-30157 en temps réel avec AllMySat

Download on the App Store